Change the Weather History Date:

Thursday, February 21, 2013

  Actual Average Record
Temperature  
Mean Temperature 49 °F 54 °F  
Max Temperature 60 °F 61 °F 68 °F (2002)
Min Temperature 37 °F 46 °F 37 °F (2006)
Degree Days  
Heating Degree Days 16    
Month to date heating degree days 311  
Since 1 July heating degree days 1713  
Cooling Degree Days 0    
Month to date cooling degree days 0  
Year to date cooling degree days 0  
Moisture  
Dew Point 38 °F    
Average Humidity 65    
Maximum Humidity 92    
Minimum Humidity 37    
Precipitation  
Precipitation 0.00 in - 0.28 in (2005)
Month to date precipitation 0.48  
Year to date precipitation 0.67  
Since 1 July precipitation 6.65  
Sea Level Pressure  
Sea Level Pressure 30.15 in    
Wind  
Wind Speed 6 mph (NNE)    
Max Wind Speed 18 mph    
Max Gust Speed 24 mph    
Visibility 10 miles    
Events      
T = Trace of Precipitation, MM = Missing Value Source: NWS Daily Summary

Daily Weather History Graph

Daily Weather History Graph

Search for Another Location

Airport or City:

Trip Planner

Search our weather history database for the weather conditions in past years. The results will help you decide how hot, cold, wet, or windy it might be!

Date:

Astronomy

Feb. 21, 2013 Rise Set
Actual Time 6:50 AM PST 5:54 PM PST
Civil Twilight 6:23 AM PST 6:21 PM PST
Nautical Twilight 5:53 AM PST 6:51 PM PST
Astronomical Twilight 5:22 AM PST 7:21 PM PST
Moon 2:17 PM PST (2/21) 3:55 AM PST (2/21)
Length of Visible Light 11h 57m
Length of Day
11h 04m
Waxing Gibbous, 84% of the Moon is Illuminated
Feb 21
Waxing Gibbous
Feb 25
Full
Mar 4
Last Quarter
Mar 11
New
Mar 19
First Quarter

Hourly Weather History & Observations

Time (PST) Temp. Windchill Dew Point Humidity Pressure Visibility Wind Dir Wind Speed Gust Speed Precip Events Conditions
12:54 AM 42.1 °F 39.2 °F 39.0 °F 89% 30.10 in 9.0 mi East 4.6 mph - N/A   Clear
1:54 AM 41.0 °F 39.0 °F 37.9 °F 89% 30.11 in 10.0 mi East 3.5 mph - N/A   Clear
2:54 AM 39.9 °F 37.8 °F 37.0 °F 89% 30.09 in 10.0 mi ESE 3.5 mph - N/A   Clear
3:54 AM 37.9 °F - 36.0 °F 93% 30.09 in 10.0 mi Calm Calm - N/A   Clear
4:54 AM 39.0 °F 36.8 °F 36.0 °F 89% 30.10 in 10.0 mi East 3.5 mph - N/A   Clear
5:54 AM 39.0 °F 36.8 °F 36.0 °F 89% 30.12 in 10.0 mi ENE 3.5 mph - N/A   Clear
6:54 AM 37.9 °F 35.5 °F 34.0 °F 86% 30.13 in 10.0 mi East 3.5 mph - N/A   Clear
7:54 AM 43.0 °F - 36.0 °F 76% 30.15 in 10.0 mi Calm Calm - N/A   Clear
8:54 AM 48.0 °F - 37.0 °F 66% 30.17 in 10.0 mi North 5.8 mph - N/A   Clear
10:54 AM 52.0 °F - 37.0 °F 57% 30.19 in 10.0 mi Variable 3.5 mph - N/A   Clear
11:54 AM 57.0 °F - 33.1 °F 40% 30.18 in 10.0 mi Variable 4.6 mph - N/A   Clear
12:54 PM 57.0 °F - 37.9 °F 49% 30.16 in 10.0 mi WNW 8.1 mph - N/A   Clear
1:54 PM 59.0 °F - 34.0 °F 39% 30.15 in 10.0 mi WNW 16.1 mph - N/A   Clear
2:54 PM 57.9 °F - 37.0 °F 46% 30.14 in 10.0 mi WNW 15.0 mph - N/A   Clear
3:54 PM 57.9 °F - 37.9 °F 47% 30.14 in 10.0 mi West 11.5 mph 23.0 mph N/A   Clear
4:54 PM 55.9 °F - 39.0 °F 53% 30.14 in 10.0 mi West 10.4 mph - N/A   Clear
5:54 PM 53.1 °F - 41.0 °F 64% 30.15 in 10.0 mi West 9.2 mph - N/A   Clear
6:54 PM 50.0 °F - 41.0 °F 71% 30.17 in 10.0 mi West 5.8 mph - N/A   Clear
7:54 PM 50.0 °F - 43.0 °F 77% 30.18 in 10.0 mi West 3.5 mph - N/A   Clear
8:54 PM 48.0 °F - 41.0 °F 77% 30.18 in 10.0 mi ESE 4.6 mph - N/A   Clear
9:54 PM 46.0 °F 43.1 °F 39.0 °F 76% 30.20 in 10.0 mi ENE 5.8 mph - N/A   Clear
10:54 PM 44.1 °F - 37.9 °F 79% 30.21 in 10.0 mi Calm Calm - N/A   Clear
11:54 PM 42.1 °F 40.2 °F 36.0 °F 79% 30.21 in 10.0 mi East 3.5 mph - N/A   Clear